TimePST,TemperatureF,Dew PointF,Humidity,Sea Level PressureIn,VisibilityMPH,Wind Direction,Wind SpeedMPH,Gust SpeedMPH,PrecipitationIn,Events,Conditions,WindDirDegrees,DateUTC
12:04 AM,42.8,41.0,93,30.07,1.8,East,3.5,-,N/A,,Clear,80,2011-11-15 08:04:00
12:14 AM,44.6,42.8,93,30.07,4.0,Calm,Calm,-,N/A,,Clear,0,2011-11-15 08:14:00
12:53 AM,42.1,39.9,92,30.05,1.5,Calm,Calm,-,N/A,,Partly Cloudy,0,2011-11-15 08:53:00
1:02 AM,42.8,42.8,100,30.06,3.0,Calm,Calm,-,N/A,,Clear,0,2011-11-15 09:02:00
1:18 AM,41.0,39.2,93,30.07,0.5,Calm,Calm,-,N/A,Fog,Fog,0,2011-11-15 09:18:00
1:28 AM,39.2,37.4,93,30.07,0.5,Calm,Calm,-,N/A,Fog,Fog,0,2011-11-15 09:28:00
1:53 AM,41.0,39.0,93,30.06,0.8,Calm,Calm,-,N/A,,Mist,0,2011-11-15 09:53:00
1:59 AM,39.2,39.2,100,30.07,2.0,Calm,Calm,-,N/A,,Scattered Clouds,0,2011-11-15 09:59:00
2:03 AM,39.2,37.4,93,30.07,7.0,Calm,Calm,-,N/A,,Mostly Cloudy,0,2011-11-15 10:03:00
2:18 AM,39.2,37.4,93,30.08,1.8,Calm,Calm,-,N/A,,Mostly Cloudy,0,2011-11-15 10:18:00
2:53 AM,39.0,37.9,96,30.06,0.8,SE,3.5,-,N/A,,Mist,140,2011-11-15 10:53:00
3:31 AM,37.4,35.6,93,30.09,1.8,Calm,Calm,-,N/A,,Mostly Cloudy,0,2011-11-15 11:31:00
3:39 AM,37.4,37.4,100,30.09,2.0,Calm,Calm,-,N/A,,Scattered Clouds,0,2011-11-15 11:39:00
3:53 AM,37.9,36.0,93,30.08,5.0,Calm,Calm,-,N/A,,Scattered Clouds,0,2011-11-15 11:53:00
4:01 AM,37.4,35.6,93,30.09,1.8,Calm,Calm,-,N/A,,Scattered Clouds,0,2011-11-15 12:01:00
5:15 AM,37.4,37.4,100,30.11,0.5,Calm,Calm,-,N/A,Fog,Fog,0,2011-11-15 13:15:00
5:57 AM,39.2,37.4,93,30.12,3.0,Calm,Calm,-,N/A,,Scattered Clouds,0,2011-11-15 13:57:00
6:38 AM,35.6,35.6,100,30.13,1.8,Calm,Calm,-,N/A,,Partly Cloudy,0,2011-11-15 14:38:00
6:53 AM,37.0,36.0,96,30.12,10.0,Calm,Calm,-,N/A,Fog,Patches of Fog,0,2011-11-15 14:53:00
6:57 AM,37.4,35.6,93,30.14,10.0,Calm,Calm,-,N/A,Fog,Patches of Fog,0,2011-11-15 14:57:00
7:53 AM,39.0,37.9,96,30.14,10.0,Calm,Calm,-,N/A,Fog,Patches of Fog,0,2011-11-15 15:53:00
8:53 AM,46.9,45.0,93,30.16,10.0,Calm,Calm,-,N/A,,Scattered Clouds,0,2011-11-15 16:53:00
9:28 AM,55.4,46.4,72,30.18,10.0,North,10.4,-,N/A,,Clear,360,2011-11-15 17:28:00
9:53 AM,59.0,43.0,55,30.16,10.0,North,9.2,-,N/A,,Clear,360,2011-11-15 17:53:00
10:53 AM,63.0,42.1,46,30.15,10.0,North,10.4,-,N/A,,Scattered Clouds,360,2011-11-15 18:53:00
11:53 AM,66.0,43.0,43,30.14,10.0,NNW,9.2,-,N/A,,Scattered Clouds,340,2011-11-15 19:53:00
12:53 PM,68.0,43.0,40,30.12,10.0,NNW,6.9,-,N/A,,Scattered Clouds,340,2011-11-15 20:53:00
1:53 PM,69.1,43.0,39,30.10,10.0,NNW,6.9,-,N/A,,Scattered Clouds,330,2011-11-15 21:53:00
2:53 PM,69.1,45.0,42,30.09,10.0,NNW,6.9,-,N/A,,Scattered Clouds,330,2011-11-15 22:53:00
3:53 PM,66.9,45.0,45,30.09,10.0,North,5.8,-,N/A,,Clear,350,2011-11-15 23:53:00
4:53 PM,63.0,44.1,50,30.09,10.0,NNW,4.6,-,N/A,,Scattered Clouds,330,2011-11-16 00:53:00
6:53 PM,55.0,45.0,69,30.12,10.0,NW,5.8,-,N/A,,Clear,310,2011-11-16 02:53:00
7:53 PM,55.0,45.0,69,30.12,10.0,North,4.6,-,N/A,,Clear,10,2011-11-16 03:53:00
8:53 PM,52.0,44.1,74,30.13,10.0,NNE,4.6,-,N/A,,Clear,30,2011-11-16 04:53:00
9:53 PM,48.0,43.0,83,30.14,10.0,Calm,Calm,-,N/A,,Clear,0,2011-11-16 05:53:00
10:53 PM,46.9,43.0,86,30.13,10.0,North,3.5,-,N/A,,Clear,360,2011-11-16 06:53:00
11:53 PM,45.0,42.1,90,30.14,10.0,Calm,Calm,-,N/A,,Clear,0,2011-11-16 07:53:00